Temp
-12 -11 -11 -11 -9 -10 -10 -10 -9 -11 -11 -10 -10 -10 -11 -11 -11 -11 -11 -11 -11 -11 -11 -12 -12 -12 -12 -12 -12 -13 -13 -13 -13 -12 -13 -12 -12 -12 -12 -12 -13 -13 -13 -13 -13 -13 -13 -13 -13
-12 -12 -11 -12 -10 -11 -13 -14 -11 -11 -12 -12 -11 -10 -10 -9 -10 -11 -11 -10 -11 -11 -11 -12 -12 -12 -12 -12 -13 -13 -13 -13 -13 -12 -13 -13 -13 -13 -13 -13 -13 -13 -13 -13 -13 -13 -13 -14 -14
-13 -12 -12 -13 -12 -11 -12 -14 -13 -12 -12 -12 -11 -10 -10 -10 -10 -11 -11 -11 -11 -11 -12 -12 -12 -12 -12 -13 -13 -13 -13 -13 -12 -12 -13 -13 -13 -13 -13 -13 -13 -13 -13 -13 -14 -14 -14 -14 -14
-13 -13 -14 -14 -13 -12 -12 -13 -12 -12 -12 -11 -11 -11 -11 -10 -11 -11 -11 -11 -12 -12 -12 -12 -12 -12 -13 -13 -12 -12 -12 -12 -12 -13 -13 -13 -13 -13 -13 -13 -13 -13 -13 -14 -14 -14 -14 -14 -14
-13 -14 -14 -14 -11 -12 -13 -13 -13 -11 -11 -11 -11 -11 -11 -11 -11 -11 -12 -12 -12 -12 -12 -12 -13 -13 -13 -12 -12 -12 -12 -12 -12 -13 -13 -13 -13 -13 -13 -13 -14 -14 -14 -14 -14 -14 -14 -14 -14
-14 -14 -14 -14 -13 -14 -14 -13 -13 -12 -12 -12 -12 -12 -11 -13 -12 -12 -12 -12 -12 -12 -13 -13 -13 -13 -13 -12 -12 -12 -12 -12 -13 -13 -13 -13 -13 -13 -14 -14 -14 -14 -14 -14 -15 -14 -14 -14 -14
-15 -14 -15 -14 -14 -14 -14 -14 -12 -12 -12 -12 -12 -12 -12 -12 -12 -12 -12 -12 -13 -13 -13 -13 -13 -13 -12 -12 -12 -12 -13 -13 -13 -13 -13 -14 -14 -14 -14 -14 -14 -14 -14 -14 -14 -14 -14 -14 -14
-14 -14 -14 -15 -13 -14 -14 -13 -12 -12 -13 -13 -14 -13 -13 -13 -12 -12 -12 -13 -13 -13 -13 -13 -13 -12 -12 -12 -12 -13 -13 -13 -13 -13 -14 -14 -14 -14 -14 -14 -14 -14 -14 -14 -15 -14 -14 -14 -14
-15 -16 -16 -15 -14 -14 -14 -12 -12 -13 -14 -15 -14 -13 -13 -13 -13 -13 -13 -13 -13 -13 -13 -13 -13 -12 -13 -13 -13 -13 -13 -13 -14 -14 -14 -14 -14 -14 -14 -14 -15 -14 -15 -15 -15 -15 -14 -14 -14
-15 -16 -15 -15 -14 -13 -13 -13 -12 -15 -14 -14 -13 -13 -14 -13 -13 -13 -13 -13 -13 -13 -13 -13 -13 -13 -13 -13 -13 -13 -13 -14 -14 -15 -15 -15 -15 -15 -15 -15 -15 -15 -15 -15 -15 -15 -15 -15 -14
-15 -16 -15 -15 -14 -13 -13 -13 -15 -15 -14 -14 -14 -14 -14 -14 -13 -13 -13 -13 -13 -13 -13 -13 -13 -13 -13 -13 -13 -13 -14 -14 -15 -15 -15 -15 -15 -15 -15 -15 -15 -15 -15 -14 -14 -15 -15 -15 -15
-16 -16 -16 -15 -14 -14 -14 -15 -15 -15 -14 -14 -14 -14 -14 -13 -13 -13 -13 -13 -13 -13 -13 -13 -13 -13 -13 -14 -14 -14 -14 -15 -15 -15 -16 -16 -16 -15 -15 -15 -15 -15 -15 -15 -15 -15 -15 -15 -16
-16 -15 -15 -16 -16 -16 -16 -15 -15 -15 -14 -14 -14 -14 -14 -14 -13 -13 -13 -13 -13 -13 -13 -13 -13 -14 -14 -14 -14 -14 -14 -14 -16 -16 -16 -15 -15 -15 -15 -14 -15 -14 -15 -15 -15 -16 -16 -16 -16
-16 -16 -16 -16 -16 -16 -15 -15 -15 -14 -14 -14 -14 -14 -14 -14 -13 -13 -13 -13 -13 -13 -13 -14 -14 -14 -14 -14 -14 -15 -15 -16 -16 -16 -15 -15 -15 -15 -15 -15 -15 -15 -16 -16 -16 -16 -16 -16 -16
-17 -16 -16 -15 -15 -15 -15 -15 -15 -15 -15 -14 -14 -14 -14 -14 -14 -14 -14 -14 -14 -14 -14 -14 -14 -14 -14 -14 -14 -15 -15 -16 -16 -15 -15 -15 -15 -15 -15 -15 -16 -16 -17 -17 -17 -17 -16 -16 -16
-16 -16 -16 -15 -14 -15 -15 -15 -15 -15 -15 -14 -14 -14 -14 -14 -14 -14 -14 -15 -15 -15 -15 -14 -14 -14 -14 -14 -14 -14 -15 -16 -16 -16 -16 -15 -15 -16 -17 -17 -17 -17 -16 -16 -16 -16 -16 -16 -16
-16 -16 -16 -15 -15 -15 -14 -14 -15 -15 -15 -14 -14 -14 -14 -14 -14 -14 -14 -14 -14 -14 -14 -14 -14 -14 -14 -14 -15 -16 -16 -16 -16 -16 -16 -16 -17 -17 -17 -17 -17 -17 -16 -16 -16 -16 -16 -16 -16
-16 -15 -15 -14 -14 -14 -14 -14 -14 -15 -15 -15 -14 -14 -14 -14 -14 -14 -14 -14 -14 -14 -13 -14 -14 -13 -14 -15 -16 -16 -16 -15 -16 -16 -17 -17 -17 -17 -17 -17 -17 -17 -17 -17 -17 -17 -17 -17 -17
-15 -15 -15 -15 -14 -14 -14 -14 -14 -14 -15 -14 -14 -14 -15 -14 -15 -15 -14 -14 -14 -14 -14 -12 -14 -15 -16 -15 -16 -16 -16 -17 -17 -17 -18 -17 -17 -17 -17 -17 -17 -17 -17 -17 -17 -17 -18 -18 -18
-15 -16 -16 -15 -15 -14 -15 -15 -14 -14 -14 -14 -14 -14 -14 -15 -16 -15 -15 -15 -15 -15 -15 -14 -15 -15 -15 -15 -16 -17 -17 -17 -17 -17 -18 -18 -18 -17 -17 -17 -17 -17 -17 -18 -18 -19 -19 -19 -19
-15 -15 -16 -15 -16 -15 -15 -15 -15 -15 -14 -14 -14 -14 -14 -15 -16 -15 -16 -15 -16 -16 -15 -15 -15 -16 -16 -16 -16 -16 -17 -17 -17 -18 -18 -17 -17 -18 -18 -18 -18 -19 -19 -19 -19 -19 -19 -19 -19
-16 -15 -15 -15 -16 -16 -15 -15 -15 -15 -14 -14 -14 -15 -15 -15 -15 -15 -15 -15 -16 -16 -16 -16 -17 -17 -17 -17 -17 -17 -17 -17 -17 -17 -18 -18 -19 -19 -19 -19 -18 -18 -18 -18 -19 -19 -19 -20 -20
-15 -15 -15 -15 -15 -15 -15 -15 -14 -14 -14 -15 -15 -15 -15 -15 -15 -15 -16 -16 -16 -16 -16 -17 -17 -17 -17 -17 -18 -18 -18 -18 -19 -19 -19 -19 -19 -18 -18 -18 -18 -18 -18 -19 -19 -20 -20 -21 -21
-15 -15 -15 -15 -15 -15 -14 -14 -14 -14 -15 -15 -15 -15 -15 -15 -16 -16 -16 -16 -16 -16 -16 -17 -17 -16 -18 -19 -19 -19 -19 -19 -19 -18 -18 -17 -18 -18 -18 -18 -18 -19 -19 -20 -20 -21 -21 -22 -23
-15 -15 -15 -15 -15 -15 -15 -15 -14 -15 -15 -15 -15 -15 -16 -16 -16 -16 -16 -16 -16 -17 -16 -17 -17 -18 -19 -18 -18 -18 -18 -17 -17 -17 -18 -18 -18 -18 -18 -18 -19 -20 -20 -21 -21 -22 -22 -23 -24
-15 -15 -15 -15 -15 -14 -14 -14 -14 -15 -15 -15 -15 -16 -16 -16 -16 -16 -16 -16 -16 -16 -16 -17 -17 -18 -18 -17 -17 -17 -18 -18 -18 -18 -18 -18 -18 -18 -19 -19 -20 -20 -21 -22 -23 -24 -24 -25 -26
-15 -15 -15 -14 -14 -14 -14 -14 -14 -15 -15 -15 -15 -15 -15 -16 -16 -16 -16 -16 -16 -16 -17 -17 -17 -17 -17 -18 -18 -18 -18 -18 -18 -18 -18 -18 -19 -19 -19 -20 -20 -21 -22 -23 -24 -25 -25 -27 -29
-15 -15 -15 -14 -14 -14 -14 -14 -14 -14 -14 -14 -14 -15 -15 -15 -15 -15 -15 -16 -16 -17 -17 -17 -18 -18 -18 -18 -19 -19 -18 -18 -18 -18 -19 -19 -19 -20 -20 -20 -21 -22 -23 -24 -25 -26 -28 -29 -31
-15 -15 -15 -15 -15 -14 -14 -14 -14 -14 -14 -14 -15 -15 -15 -15 -15 -16 -16 -16 -16 -16 -17 -17 -18 -18 -19 -19 -19 -19 -18 -19 -19 -19 -19 -19 -20 -20 -21 -22 -22 -23 -25 -26 -27 -29 -30 -31 -33
-15 -15 -15 -15 -15 -15 -14 -14 -14 -14 -14 -14 -15 -15 -15 -15 -16 -16 -16 -16 -16 -17 -17 -18 -18 -19 -19 -19 -19 -19 -19 -19 -19 -19 -19 -20 -20 -21 -22 -23 -24 -25 -26 -27 -29 -30 -31 -32 -33
Height
5815 5816 5817 5818 5823 5822 5825 5830 5830 5836 5839 5841 5842 5843 5843 5842 5843 5847 5846 5846 5846 5847 5847 5846 5846 5846 5844 5842 5841 5840 5839 5839 5839 5838 5838 5838 5837 5837 5836 5836 5834 5833 5832 5831 5829 5828 5827 5825 5824
5811 5813 5814 5813 5817 5819 5821 5826 5825 5830 5833 5834 5835 5834 5837 5837 5837 5841 5841 5842 5843 5843 5843 5843 5842 5842 5841 5841 5840 5839 5838 5839 5838 5838 5838 5837 5836 5835 5835 5834 5833 5832 5830 5829 5827 5826 5824 5824 5823
5809 5810 5811 5811 5813 5816 5818 5820 5822 5827 5830 5828 5828 5831 5833 5833 5835 5838 5838 5840 5839 5839 5839 5839 5839 5839 5839 5838 5838 5837 5838 5838 5838 5837 5837 5836 5835 5835 5834 5832 5830 5829 5827 5826 5825 5823 5822 5820 5819
5807 5808 5809 5809 5813 5814 5816 5815 5822 5825 5825 5826 5824 5829 5830 5831 5832 5835 5835 5834 5835 5836 5835 5836 5836 5837 5837 5836 5836 5837 5837 5837 5838 5837 5836 5835 5834 5833 5832 5831 5829 5827 5826 5824 5823 5820 5818 5817 5815
5803 5805 5806 5807 5808 5809 5810 5814 5817 5817 5818 5823 5821 5823 5824 5828 5830 5832 5831 5831 5832 5832 5832 5833 5834 5835 5835 5835 5836 5836 5836 5835 5835 5834 5834 5835 5834 5832 5831 5829 5827 5825 5823 5820 5818 5816 5814 5812 5810
5801 5803 5803 5803 5806 5809 5811 5812 5815 5817 5819 5817 5819 5822 5824 5825 5826 5829 5830 5830 5830 5829 5830 5831 5832 5832 5834 5835 5834 5835 5835 5835 5834 5834 5834 5833 5831 5830 5828 5826 5823 5821 5819 5817 5814 5812 5810 5808 5807
5798 5800 5800 5802 5804 5808 5810 5811 5813 5813 5814 5816 5818 5819 5822 5824 5824 5825 5826 5825 5825 5825 5827 5828 5830 5833 5833 5833 5833 5834 5834 5833 5833 5832 5830 5828 5826 5825 5824 5822 5820 5817 5815 5812 5810 5808 5806 5804 5802
5794 5796 5797 5799 5802 5805 5805 5810 5811 5810 5813 5817 5817 5817 5819 5821 5821 5820 5821 5820 5821 5824 5826 5827 5829 5831 5832 5833 5833 5833 5832 5832 5831 5829 5828 5826 5825 5823 5820 5818 5816 5813 5810 5808 5805 5802 5799 5798 5797
5791 5793 5794 5797 5802 5805 5804 5807 5808 5813 5814 5817 5817 5818 5819 5819 5819 5820 5819 5820 5822 5824 5825 5827 5829 5830 5831 5831 5831 5831 5830 5828 5826 5825 5824 5822 5821 5818 5816 5814 5811 5809 5805 5802 5800 5797 5794 5793 5791
5789 5791 5791 5798 5800 5801 5805 5806 5809 5811 5813 5815 5815 5816 5817 5818 5819 5820 5821 5823 5823 5824 5826 5828 5829 5829 5829 5829 5829 5828 5827 5824 5822 5822 5820 5818 5816 5814 5813 5811 5807 5803 5798 5795 5792 5791 5790 5788 5784
5790 5791 5793 5796 5797 5801 5802 5804 5805 5811 5813 5814 5815 5816 5817 5818 5819 5821 5822 5823 5823 5824 5824 5825 5827 5827 5827 5827 5827 5825 5822 5820 5819 5817 5816 5814 5812 5811 5807 5804 5801 5798 5794 5790 5787 5784 5782 5781 5778
5790 5791 5792 5796 5797 5797 5801 5804 5807 5811 5814 5814 5816 5816 5816 5818 5819 5819 5821 5822 5823 5822 5822 5823 5823 5823 5823 5823 5822 5820 5818 5816 5814 5812 5811 5809 5807 5804 5801 5798 5795 5791 5788 5785 5781 5777 5775 5772 5771
5789 5789 5792 5794 5795 5798 5801 5804 5808 5811 5812 5814 5816 5816 5816 5817 5818 5820 5820 5821 5819 5818 5819 5819 5819 5819 5819 5819 5818 5815 5812 5810 5809 5809 5807 5804 5800 5796 5793 5789 5787 5783 5780 5777 5774 5771 5767 5765 5763
5789 5790 5792 5794 5797 5800 5803 5806 5809 5811 5812 5814 5814 5814 5815 5818 5819 5819 5818 5818 5816 5816 5816 5816 5816 5816 5816 5815 5812 5809 5807 5805 5804 5802 5800 5796 5792 5788 5784 5781 5778 5775 5772 5769 5766 5763 5760 5758 5757
5789 5791 5795 5797 5800 5803 5806 5808 5809 5810 5811 5812 5813 5814 5815 5816 5817 5816 5815 5816 5816 5816 5816 5815 5814 5813 5813 5811 5806 5802 5799 5796 5796 5795 5792 5788 5783 5779 5777 5773 5770 5767 5763 5759 5757 5754 5751 5749 5748
5790 5793 5795 5798 5800 5801 5805 5806 5808 5809 5810 5810 5812 5813 5814 5815 5816 5815 5815 5815 5815 5815 5814 5813 5812 5809 5806 5803 5800 5792 5790 5790 5789 5786 5783 5778 5775 5772 5769 5766 5762 5758 5753 5750 5748 5746 5742 5740 5737
5791 5794 5796 5798 5798 5800 5802 5804 5807 5807 5807 5809 5811 5812 5812 5811 5812 5812 5812 5812 5812 5811 5810 5809 5808 5805 5799 5793 5783 5783 5784 5783 5780 5777 5773 5768 5766 5763 5761 5757 5753 5749 5745 5742 5738 5734 5730 5727 5724
5792 5794 5796 5797 5798 5799 5802 5804 5805 5806 5807 5808 5810 5809 5808 5808 5808 5807 5805 5805 5805 5804 5804 5803 5801 5798 5786 5778 5782 5780 5780 5776 5774 5770 5765 5762 5757 5753 5749 5745 5742 5739 5735 5731 5727 5722 5717 5713 5709
5792 5793 5794 5796 5798 5800 5801 5802 5803 5804 5806 5806 5806 5806 5806 5804 5804 5803 5802 5800 5799 5797 5797 5796 5793 5779 5778 5779 5778 5776 5773 5770 5765 5761 5758 5753 5748 5743 5738 5735 5731 5727 5722 5716 5711 5706 5700 5693 5688
5791 5792 5794 5795 5797 5799 5799 5800 5802 5802 5803 5804 5804 5804 5803 5802 5802 5801 5799 5797 5795 5793 5791 5788 5785 5783 5779 5776 5772 5769 5765 5761 5757 5752 5746 5741 5736 5733 5729 5724 5718 5712 5706 5699 5691 5684 5679 5672 5666
5790 5792 5792 5794 5795 5795 5796 5797 5798 5799 5800 5800 5801 5800 5799 5799 5798 5797 5795 5793 5790 5788 5785 5782 5778 5774 5771 5768 5764 5760 5755 5750 5744 5739 5735 5731 5727 5722 5716 5711 5705 5698 5691 5684 5677 5669 5661 5652 5643
5789 5791 5790 5791 5792 5792 5793 5793 5794 5795 5796 5797 5796 5796 5795 5793 5792 5792 5790 5788 5786 5783 5780 5777 5774 5771 5766 5760 5754 5747 5743 5739 5735 5730 5726 5721 5716 5710 5705 5700 5693 5685 5675 5666 5657 5647 5638 5628 5620
5789 5790 5791 5790 5789 5790 5790 5791 5792 5792 5793 5792 5791 5790 5789 5788 5787 5787 5787 5783 5780 5777 5773 5770 5767 5762 5757 5751 5745 5740 5735 5731 5726 5721 5717 5712 5707 5699 5691 5682 5673 5663 5654 5645 5636 5627 5617 5606 5595
5786 5787 5787 5787 5787 5786 5787 5788 5788 5789 5789 5788 5787 5785 5784 5785 5783 5782 5778 5775 5772 5769 5766 5762 5758 5753 5748 5744 5739 5734 5729 5725 5720 5714 5707 5699 5691 5683 5674 5665 5655 5645 5635 5624 5614 5604 5592 5579 5567
5784 5784 5784 5785 5784 5783 5783 5782 5782 5782 5783 5783 5782 5780 5779 5778 5776 5774 5772 5768 5765 5763 5758 5754 5750 5746 5741 5736 5732 5727 5722 5715 5708 5701 5693 5685 5677 5668 5658 5649 5638 5628 5616 5604 5591 5579 5567 5554 5539
5780 5781 5781 5780 5780 5781 5780 5779 5780 5779 5778 5777 5776 5775 5773 5772 5770 5768 5765 5763 5758 5753 5750 5747 5742 5738 5733 5728 5722 5716 5710 5703 5696 5689 5682 5673 5664 5654 5644 5633 5622 5608 5595 5581 5565 5549 5535 5521 5507
5778 5778 5779 5779 5779 5778 5778 5778 5777 5776 5775 5773 5772 5770 5769 5767 5764 5761 5759 5755 5752 5748 5743 5738 5734 5729 5724 5719 5713 5707 5700 5693 5686 5678 5670 5660 5650 5639 5627 5614 5600 5584 5567 5551 5535 5520 5505 5493 5482
5776 5777 5778 5778 5778 5777 5776 5775 5774 5773 5772 5770 5768 5766 5764 5761 5758 5755 5751 5748 5745 5741 5737 5732 5727 5720 5714 5708 5701 5693 5686 5679 5671 5662 5652 5642 5630 5617 5604 5589 5574 5557 5542 5528 5513 5496 5482 5473 5465
5775 5776 5777 5777 5777 5775 5775 5774 5772 5770 5768 5766 5764 5761 5758 5755 5751 5749 5746 5742 5739 5733 5727 5720 5714 5708 5702 5695 5688 5680 5672 5664 5656 5646 5634 5622 5610 5597 5582 5568 5554 5539 5522 5505 5489 5476 5467 5459 5453
5773 5774 5775 5775 5775 5773 5771 5771 5768 5767 5765 5763 5760 5756 5752 5749 5746 5742 5737 5732 5726 5721 5716 5710 5703 5696 5690 5682 5674 5667 5658 5650 5640 5629 5618 5606 5594 5580 5565 5548 5533 5517 5501 5484 5472 5463 5456 5450 5445
Wind_Speed
23 27 23 22 28 38 43 35 44 37 33 31 27 26 25 27 26 26 22 23 21 23 24 27 29 30 29 25 18 10 7 6 3 3 1 0 2 3 5 7 8 10 11 13 15 16 17 18 17
18 21 20 18 19 30 26 25 31 35 32 32 28 28 26 17 24 23 17 24 20 24 29 30 28 26 25 20 14 10 9 6 5 5 4 4 6 7 9 11 12 14 15 16 18 19 20 22 21
16 17 20 15 22 26 31 28 27 31 30 31 34 33 23 19 14 17 20 21 23 29 30 28 25 22 19 13 11 9 8 7 8 8 8 9 11 13 14 16 17 18 20 21 23 23 25 26 27
14 14 18 9 21 23 27 28 28 31 34 25 32 31 34 25 18 18 18 22 29 31 29 24 21 17 12 9 7 6 8 9 9 10 12 13 15 16 18 20 22 23 24 25 26 27 28 29 30
17 13 16 18 20 24 26 33 33 32 27 30 33 29 23 19 13 16 21 25 27 27 23 19 15 11 8 7 6 8 9 10 13 14 15 16 17 19 21 22 24 25 26 27 29 30 32 31 30
15 13 21 23 24 26 27 27 31 14 30 20 13 19 12 9 14 16 18 24 26 22 17 15 11 8 7 8 8 9 11 14 15 15 16 18 20 21 22 24 27 29 30 30 29 28 27 28 28
19 13 27 27 26 27 26 27 20 17 16 20 10 11 13 14 18 21 22 23 18 16 13 10 8 9 9 10 11 13 14 15 16 18 19 19 20 23 26 28 28 26 25 26 27 27 27 28 30
23 17 35 33 19 31 32 24 20 9 1 3 9 15 17 19 21 22 19 16 14 13 9 7 10 10 12 13 14 15 16 18 19 20 20 21 25 28 28 28 28 28 28 29 30 31 32 32 32
26 24 27 30 29 28 25 24 14 5 9 6 9 14 14 14 14 13 8 7 9 7 6 6 8 11 13 13 16 17 20 19 18 19 22 26 28 29 28 29 27 31 33 32 31 32 32 34 35
19 24 32 29 28 27 17 13 23 17 11 7 8 9 8 8 8 6 1 2 4 3 2 5 9 10 13 15 18 18 19 20 20 20 22 25 26 29 32 31 28 38 35 35 34 34 34 36 34
18 21 22 18 13 20 11 6 12 13 6 2 2 5 8 7 7 5 3 3 1 2 6 9 10 12 13 15 18 19 20 24 23 21 24 26 27 29 33 32 32 39 37 38 38 36 34 35 32
27 24 24 22 19 9 11 11 8 11 2 4 4 6 7 8 8 6 4 4 6 8 7 7 10 13 16 18 20 21 21 23 24 21 25 26 29 31 34 34 43 39 39 39 36 34 32 30 30
26 15 15 3 8 9 7 6 7 4 5 6 5 7 7 6 4 4 3 4 4 6 9 11 14 19 20 20 21 23 23 22 22 25 30 32 35 38 38 40 40 41 41 37 34 32 31 30 30
15 7 7 5 2 1 1 5 2 7 8 8 9 8 7 4 2 3 3 4 7 10 14 17 18 20 21 21 24 24 21 17 17 26 35 37 38 41 42 40 42 41 39 37 36 34 33 32 32
13 7 8 2 7 8 6 6 10 9 11 11 12 11 8 5 1 4 6 8 11 14 16 19 22 20 17 19 26 31 24 14 29 34 38 42 43 43 41 43 43 42 39 41 39 37 36 36 37
9 7 3 2 7 12 12 12 10 10 11 12 13 13 10 6 7 6 7 9 12 15 19 22 20 22 22 24 26 20 28 32 36 42 42 43 41 37 40 45 45 44 42 41 39 39 39 43 45
6 7 9 8 12 14 16 14 10 11 15 13 11 14 10 7 8 8 9 8 14 17 18 20 15 21 28 24 25 32 37 37 45 45 46 41 37 48 46 44 45 41 40 42 45 48 50 52 53
12 13 13 12 12 15 14 13 13 11 9 10 11 11 7 9 10 12 14 12 15 18 20 16 15 22 27 33 36 36 39 44 47 45 42 47 54 54 49 47 42 44 47 51 54 56 59 61 63
11 17 16 16 15 15 14 12 12 12 11 12 10 11 11 10 12 14 17 20 21 21 20 17 23 35 38 38 36 45 49 46 51 54 54 51 51 49 46 46 49 53 57 61 63 65 67 71 73
15 22 18 20 18 16 15 13 12 12 10 10 12 11 12 13 14 17 21 22 21 19 20 32 38 41 44 45 53 52 52 53 52 49 47 46 45 44 48 52 56 61 66 69 72 74 76 78 81
22 23 23 19 14 16 11 10 9 11 10 11 12 14 16 15 18 21 21 23 25 29 34 39 43 44 46 51 52 53 54 48 46 46 44 43 47 52 56 60 63 66 69 72 75 78 81 84 86
20 20 27 23 18 17 16 17 15 14 15 16 17 17 19 21 24 23 23 24 25 33 38 36 39 46 48 51 54 57 54 49 45 42 45 50 54 58 60 62 65 70 74 78 81 83 86 89 92
16 15 18 16 16 18 19 20 16 16 17 20 22 23 24 26 26 26 26 26 31 36 39 36 43 42 52 51 55 55 50 46 46 49 52 54 57 60 64 68 73 78 81 84 86 89 92 96 98
15 15 15 15 16 20 19 22 20 20 22 24 26 27 27 24 24 29 29 33 36 34 39 42 47 57 49 49 50 46 45 46 47 50 55 59 63 67 70 74 78 82 85 89 92 95 99 99 97
16 16 16 18 19 22 22 25 23 22 20 21 23 24 25 26 26 26 28 32 41 39 41 46 52 48 47 47 46 45 47 50 53 58 61 64 67 71 75 79 83 86 90 94 96 99 99 100 101
16 16 16 14 13 13 15 12 11 13 15 17 18 20 22 23 24 25 25 37 41 41 46 50 47 47 45 45 46 49 51 54 58 60 63 67 70 76 79 84 87 91 94 95 98 98 102 103 92
12 11 9 8 8 8 7 4 4 4 5 7 10 12 14 17 19 22 26 31 34 37 41 42 44 44 47 46 46 49 53 57 59 62 66 70 75 79 85 90 93 96 100 103 103 104 104 87 75
10 8 5 3 3 2 4 6 8 8 8 10 12 14 17 20 23 26 29 31 34 36 38 40 42 45 45 47 51 55 58 60 63 67 71 76 82 87 91 94 96 100 103 102 104 95 77 67 59
10 8 5 4 4 7 8 8 9 11 13 15 16 19 22 25 27 29 31 33 34 36 40 44 47 49 51 54 57 60 61 64 68 72 77 82 88 92 93 95 97 101 102 100 87 66 59 50 43
10 9 8 7 9 12 12 11 13 15 16 17 19 22 25 26 29 32 34 37 40 41 44 47 50 53 56 58 60 61 64 69 73 77 82 87 92 92 94 95 100 100 98 82 60 50 43 39 42
Wind_Direction
244 250 262 270 275 255 242 234 237 219 228 230 231 235 230 233 233 239 252 263 262 278 288 296 296 296 302 298 298 290 298 297 238 155 126 66 359 328 330 318 312 314 310 312 313 310 312 313 312
260 254 257 264 262 239 214 210 227 223 215 221 222 228 238 209 232 250 296 266 276 280 290 299 301 299 295 295 288 279 266 258 212 209 225 256 270 273 279 287 292 296 300 301 301 302 307 307 310
266 245 247 244 245 236 212 211 212 230 224 220 220 231 217 222 239 255 264 288 297 295 298 303 300 288 291 287 277 258 242 228 209 226 246 261 269 277 283 288 291 294 295 294 296 300 303 306 306
263 259 230 243 236 235 215 202 208 224 233 225 222 249 246 239 251 264 279 299 299 297 299 298 287 281 276 270 240 216 204 207 224 242 255 266 274 283 290 292 295 297 298 299 300 302 303 303 303
257 273 209 204 242 229 232 222 219 226 223 232 242 256 252 234 262 278 294 297 295 291 289 278 268 263 250 223 199 204 214 223 238 249 262 278 287 293 295 299 302 300 298 297 299 301 302 301 301
255 251 206 225 229 222 227 229 234 247 230 253 281 272 243 308 306 294 285 293 283 277 267 264 257 229 207 202 203 218 232 242 255 268 282 289 294 294 296 297 298 299 302 303 304 304 303 303 302
254 244 208 215 221 216 217 230 231 235 242 274 306 306 311 308 298 304 296 286 269 263 254 253 224 200 207 216 225 239 251 261 272 282 283 288 289 290 295 298 301 302 304 306 307 306 304 303 303
242 233 211 208 222 213 221 244 210 247 81 349 341 307 303 307 305 303 298 273 263 259 245 217 196 209 224 234 244 256 267 276 281 284 288 291 292 295 297 301 302 303 305 307 305 302 301 300 299
230 200 215 220 211 230 240 220 213 237 14 337 303 293 292 292 292 290 296 258 228 217 194 187 215 232 244 258 268 276 276 279 281 288 294 296 296 297 300 301 305 307 305 301 300 300 302 302 304
200 206 216 213 221 225 213 237 225 37 2 331 308 291 276 270 267 257 268 193 157 151 160 231 250 263 274 279 282 284 289 289 290 296 296 294 297 303 305 304 303 309 302 299 300 299 301 300 298
216 226 225 229 234 220 247 204 57 14 10 339 295 192 225 227 225 225 218 255 266 256 251 258 273 281 283 280 279 280 283 285 284 287 293 302 308 308 308 299 293 302 301 301 300 301 301 299 298
211 218 232 236 246 175 97 57 44 343 292 244 225 219 224 220 207 218 249 264 274 264 276 290 288 280 273 276 276 274 283 290 277 281 315 308 307 303 299 294 298 299 301 301 300 300 302 300 300
212 217 183 160 61 48 32 9 342 297 248 235 219 235 239 238 236 253 261 256 264 286 285 274 272 272 276 277 277 274 281 295 278 296 309 306 302 299 295 297 298 301 302 301 298 297 296 296 296
198 135 95 91 58 249 358 330 235 212 237 251 248 242 228 229 214 205 227 284 315 300 292 291 283 283 283 284 277 268 283 283 275 300 306 307 301 298 302 301 299 302 302 298 294 294 295 296 295
147 144 153 264 239 231 241 201 198 223 243 241 235 240 232 238 268 9 329 298 280 278 276 275 285 288 294 286 275 259 278 302 311 308 305 304 303 302 299 301 303 302 295 294 295 297 300 300 299
150 166 211 326 257 219 202 209 213 223 239 245 248 239 224 204 211 218 211 244 261 260 267 276 276 283 290 287 274 269 319 318 311 312 309 306 301 295 302 300 297 293 294 295 296 296 295 296 295
161 193 228 268 217 184 195 199 199 236 236 243 244 234 227 238 249 246 248 265 256 262 272 279 274 281 278 274 303 317 320 312 312 312 309 304 300 303 300 295 293 292 294 296 298 298 298 296 294
228 222 246 222 198 187 199 202 197 219 232 234 240 250 264 264 272 287 293 298 299 289 294 289 275 285 282 307 314 316 315 308 309 310 304 303 300 301 301 299 295 298 300 300 301 301 299 297 297
236 204 209 214 213 208 207 219 219 213 229 228 227 255 266 281 301 295 299 299 301 295 293 285 271 297 311 305 307 314 316 309 306 304 301 299 301 302 302 302 304 304 304 305 305 304 303 302 301
230 198 205 220 235 228 213 227 228 233 244 252 246 267 280 287 291 290 293 297 297 298 289 293 301 305 307 305 308 311 309 304 300 301 304 305 302 302 304 305 306 307 309 309 308 306 304 302 299
208 212 213 212 225 241 246 260 284 287 289 286 281 286 289 287 280 288 296 296 294 297 302 308 310 306 301 301 303 304 308 307 306 308 307 305 306 308 309 309 308 307 305 304 302 301 302 302 302
203 219 217 220 226 248 259 279 281 290 295 299 301 296 291 287 286 287 288 291 292 300 301 300 300 296 298 304 306 310 309 308 307 306 307 307 307 304 303 302 302 303 305 306 306 305 306 306 304
235 223 224 239 250 260 270 278 288 291 298 296 291 290 289 293 294 302 288 285 295 300 298 294 300 298 311 308 307 305 304 305 305 304 301 298 299 302 305 308 310 310 310 309 307 306 305 304 303
226 232 236 245 260 268 276 280 286 289 287 288 288 285 291 297 308 296 296 300 296 295 287 295 289 299 306 299 295 294 295 295 295 296 300 305 309 310 311 312 313 314 312 310 308 307 305 305 303
234 240 252 259 265 274 280 284 294 294 292 290 293 302 307 303 303 296 294 296 298 287 285 294 301 301 296 294 289 290 292 297 302 305 307 309 310 312 312 312 312 312 310 307 306 306 305 305 304
250 253 259 267 276 280 281 301 313 304 304 302 303 301 297 295 294 291 289 291 291 294 296 296 296 294 292 292 297 298 299 301 303 305 308 309 310 311 309 309 309 308 307 307 308 309 309 308 304
232 233 244 257 268 283 302 333 5 335 308 298 291 297 303 300 293 288 285 287 293 295 294 294 294 292 296 299 299 299 301 302 305 308 309 310 309 308 310 311 310 309 312 312 313 312 310 306 302
224 222 225 242 258 318 5 5 8 358 339 335 335 330 322 319 317 316 314 310 305 302 299 296 296 302 304 305 305 306 306 309 310 311 310 310 311 313 313 313 314 314 314 313 313 311 307 306 304
204 202 211 208 285 310 319 315 325 323 322 326 326 325 324 322 319 314 307 304 304 305 307 307 308 307 307 307 307 308 310 311 312 311 312 313 313 313 314 315 315 315 315 315 314 310 309 309 309
203 219 237 273 294 303 311 319 314 314 317 320 321 325 325 321 316 314 313 311 310 310 308 308 307 306 305 306 308 310 311 311 312 311 312 312 313 313 314 316 317 317 317 316 313 313 314 317 312